Date,TemperatureHighF,TemperatureAvgF,TemperatureLowF,DewpointHighF,DewpointAvgF,DewpointLowF,HumidityHigh,HumidityAvg,HumidityLow,PressureMaxIn,PressureMinIn,WindSpeedMaxMPH,WindSpeedAvgMPH,GustSpeedMaxMPH,PrecipitationSumIn
2013-12-1,43,36,28,38,31,26,96,85,68,29.59,29.49,7,0,7,0.00
2013-12-2,42,34,27,33,30,26,97,85,64,29.49,29.31,5,0,5,0.05
2013-12-3,42,36,34,40,35,33,96,95,94,29.32,29.25,12,1,12,0.11
2013-12-4,59,51,45,56,50,44,98,95,86,29.28,29.06,3,1,12,0.00
2013-12-5,57,35,28,54,29,21,90,80,72,29.71,29.09,8,5,19,0.00
2013-12-6,28,26,23,22,20,15,81,78,72,29.95,29.70,8,1,11,0.00
2013-12-7,23,19,12,16,14,10,94,78,71,30.15,29.95,12,2,12,0.00
2013-12-8,26,21,12,24,18,10,95,86,73,30.07,29.46,8,1,12,0.00
2013-12-9,28,23,14,25,18,8,95,81,65,29.70,29.42,18,5,21,0.00
2013-12-10,24,15,1,16,8,-3,85,75,65,29.78,29.52,19,4,19,0.00
2013-12-11,24,18,13,21,13,6,93,81,66,30.00,29.76,15,3,15,0.00
2013-12-12,22,12,-2,13,5,-7,85,73,55,30.01,29.73,15,2,15,0.00
2013-12-13,32,22,9,25,16,7,94,81,63,29.73,29.63,7,0,7,0.00
2013-12-14,27,24,22,26,23,19,95,93,89,29.65,29.38,11,2,11,0.00
2013-12-15,30,21,18,27,16,12,95,83,77,29.59,29.40,17,4,17,0.00
2013-12-16,23,17,4,17,13,2,95,83,70,29.66,29.51,8,0,8,0.00
2013-12-17,33,26,17,28,22,15,94,87,71,29.55,29.43,15,3,15,0.00
2013-12-18,36,27,17,29,20,14,88,73,59,29.68,29.37,18,2,18,0.00
2013-12-19,44,38,32,38,34,29,96,86,73,29.46,29.32,11,1,11,0.17
2013-12-20,41,37,34,40,36,33,99,98,97,29.32,29.20,5,0,5,0.27
2013-12-21,36,35,33,36,34,32,99,98,97,29.33,29.08,10,1,10,0.52
2013-12-22,36,33,29,35,32,27,98,96,92,29.56,29.00,11,2,11,0.15
2013-12-23,29,22,8,27,19,6,93,86,70,29.91,29.56,15,4,15,0.00
2013-12-24,21,10,3,14,6,0,95,86,71,30.05,29.90,10,2,10,0.00
2013-12-25,27,23,17,26,20,13,96,87,79,29.93,29.59,7,1,14,0.00
2013-12-26,34,27,22,29,23,18,94,84,73,29.79,29.58,16,3,16,0.00
2013-12-27,43,36,25,34,31,24,97,82,67,29.80,29.59,19,2,19,0.07
2013-12-28,50,41,32,38,34,30,92,76,62,29.61,29.37,13,2,13,0.00
2013-12-29,40,32,21,35,28,17,95,85,74,29.60,29.26,18,2,18,0.00
2013-12-30,21,17,13,17,12,10,89,82,75,29.80,29.60,8,2,12,0.00
2013-12-31,16,14,13,13,11,7,92,86,69,29.84,29.65,12,2,12,0.00